Regional Weather Roundup
Issued by NWS

Home | Current Version | Previous Version | Text Only | Print | Product List | Glossary On
Versions: 1 2 3 4 5 6 7 8 9 10 11 12 13 14 15 16 17 18 19 20 21 22 23 24 25 26 27 28 29 30 31 32 33 34 35 36 37 38 39 40 41 42 43 44 45 46 47 48 49 50
000
ASUS43 KMKX 261900
RWRWI

WISCONSIN REGIONAL WEATHER ROUNDUP
NATIONAL WEATHER SERVICE MILWAUKEE/SULLIVAN WI
200 PM CDT MON SEP 26 2016

NOTE: "FAIR" INDICATES FEW OR NO CLOUDS BELOW 12,000 FEET WITH NO
SIGNIFICANT WEATHER AND/OR OBSTRUCTIONS TO VISIBILITY.

WIZ001-002-006>008-014>016-023>028-262000-
NORTHWEST WISCONSIN

CITY           SKY/WX    TMP DP  RH WIND       PRES   REMARKS
SUPERIOR ARPT  CLOUDY    54  44  69 W16G28    29.75S
ASHLAND        LGT RAIN  51  48  89 W15G25    29.71S
HAYWARD        LGT RAIN  51  45  79 W9        29.78R
SIREN          CLOUDY    58  38  48 NW21G32   29.83S
CUMBERLAND     CLOUDY    54  37  54 W20G32    29.84R
RICE LAKE      CLOUDY    57  39  50 W14G22    29.85S
CHETEK         NOT AVBL
LADYSMITH      CLOUDY    57  41  56 W21G32    29.81S
EAU CLAIRE     NOT AVBL
MENOMONIE      PTSUNNY   60  40  46 W20G29    29.87S
NEW RICHMOND   PTSUNNY   59  38  45 W18G29    29.88S
OSCEOLA        PTSUNNY   61  39  43 W20G28    29.91S
$$

WIZ003>005-009-010-017-018-262000-
NORTH CENTRAL WISCONSIN

CITY           SKY/WX    TMP DP  RH WIND       PRES   REMARKS
MANITOWISH WTR NOT AVBL
ARBOR VITAE    LGT RAIN  52  45  76 W15G25    29.72S
WOODRUFF       LGT RAIN  52  45  76 W15G25    29.72S
RHINELANDER    CLOUDY    55  41  59 W23G35    29.73S
EAGLE RIVER    DRIZZLE   50  43  74 W15G25    29.70S
LAND O LAKES   LGT RAIN  49  47  91 W9G21     29.71R
PHILLIPS       CLOUDY    53  40  62 W10G17    29.75S
TOMAHAWK       CLOUDY    55  39  55 W16G25    29.75S
MEDFORD        PTSUNNY   57  40  53 W20G29    29.79S
MERRILL        CLOUDY    57  40  52 W16G26    29.76F
$$

WIZ029-030-035-036-043>047-262000-
CENTRAL WISCONSIN

CITY           SKY/WX    TMP DP  RH WIND       PRES   REMARKS
WAUSAU         CLOUDY    61  39  44 W25G41    29.76F
MOSINEE        PTSUNNY   57  39  51 W21G31    29.80S
MARSHFIELD     CLOUDY    59  38  45 W20G35    29.81S
STEVENS POINT  CLOUDY    59  38  46 W14G30    29.81F
WAUPACA        MOSUNNY   64  38  38 W24G33    29.81F
WAUTOMA        CLOUDY    62  39  42 W21G31    29.84S
WISC RAPIDS    CLOUDY    60  40  47 W14G25    29.83F
CAMP DOUGLAS   NOT AVBL
$$

WIZ011>013-019>022-031-037>040-048>050-262000-
NORTHEAST WISCONSIN

CITY           SKY/WX    TMP DP  RH WIND       PRES   REMARKS
ANTIGO         CLOUDY    53  42  66 W16G23    29.75F
SHAWANO        CLOUDY    61  40  45 W22       29.77S
OCONTO         NOT AVBL
STURGEON BAY   CLOUDY    60  43  53 W23       29.74F
GREEN BAY      PTSUNNY   63  42  46 W22G30    29.77F
MANITOWOC      NOT AVBL
APPLETON       PTSUNNY   63  34  34 W24G35    29.79F
CLINTONVILLE   NOT AVBL
OSHKOSH        PTSUNNY   62  37  39 W21G35    29.81F
$$

WIZ032>034-041-042-053>061-262000-
SOUTHWEST WISCONSIN

CITY           SKY/WX    TMP DP  RH WIND       PRES   REMARKS
LA CROSSE      PTSUNNY   68  37  32 W23G32    29.88F
SPARTA         PTSUNNY   64  35  34 W22G36    29.88F
VIROQUA        SUNNY     65  32  30 W18G26    29.91F
BOSCOBEL       SUNNY     68  33  27 W20G31    29.93F
PRAIRIE DU CHI SUNNY     67  31  25 W20G28    29.95F
PLATTEVILLE    SUNNY     66  38  35 W18G31    29.97F
$$

WIZ056-057-062-063-064-067-068-262000-
SOUTH CENTRAL WISCONSIN

CITY           SKY/WX    TMP DP  RH WIND       PRES   REMARKS
REEDSBURG      NOT AVBL
BARABOO/DELLS  MOSUNNY   64  32  30 W17G30    29.88F
LONE ROCK      NOT AVBL
MINERAL POINT  MOSUNNY   66  34  30 W17G30    29.95F
MADISON        PTSUNNY   64  38  38 W12G26    29.89F
MIDDLETON      NOT AVBL
WATERTOWN      CLOUDY    63  40  43 W16G26    29.89F
MONROE         SUNNY     63  34  34 W26G40    29.95F
JANESVILLE     MOSUNNY   66  37  34 W20G32    29.92F
$$

WIZ051-052-058>065-066-070>072-262000-
SOUTHEAST WISCONSIN

CITY           SKY/WX    TMP DP  RH WIND       PRES   REMARKS
MILWAUKEE      MOSUNNY   67  37  33 W20G32    29.89F
WAUKESHA       PTSUNNY   63  39  42 W16G31    29.90F
MILWAUKEE/TIMM MOSUNNY   64  34  32 W22G29    29.88F
RACINE         SUNNY     66  37  34 W20G30    29.90F
BURLINGTON     SUNNY     64  37  36 W17G26    29.92S
KENOSHA        SUNNY     67  40  37 W20G31    29.90F
FOND DU LAC    PTSUNNY   63  38  39 W20G35    29.84F
SHEBOYGAN      PTSUNNY   64  38  38 W20G30    29.83F
WEST BEND      PTSUNNY   63  36  36 W17G32    29.86F
JUNEAU         PTSUNNY   62  39  42 W22G35    29.89S
$$

LSZ147-162-262000-
LAKE SUPERIOR

STATION/POSITION TIME  TEMP    WIND        PRES    WAVE
                       AIR SEA DIR/SP/G            HT/PER
                 (UTC) (F)     (DEG/KT/KT) (MB)    (FT/S)
W MID LAKE BUOY  1750   53 52  250/ 27/ 35 1000.1R   8/ 7
DEVILS ISLAND    1800   53     260/ 28/ 35 1003.7R
SAXON HARBOR     1840   53     240/  9/ 16 1005.4S
$$

LMZ867-665-643>646-262000-
LAKE MICHIGAN

STATION/POSITION TIME  TEMP    WIND        PRES    WAVE
                       AIR SEA DIR/SP/G            HT/PER
                 (UTC) (F)     (DEG/KT/KT) (MB)    (FT/S)
CHAMBERS ISLAND  1800   58     220/ 12/ 20 1006.1F
N MID LAKE BUOY  1750   58 67  240/ 25/ 31 1004.6F   6/ 6
NORTHPORT PIER   1800   58     260/  8/ 19 1006.1F
KEWAUNEE LAKESHO 1800   63     270/ 15/ 23 1007.7F
SHEBOYGAN LAKESH 1800   62     260/ 17/ 23 1009.8R
PORT WASHINGTON  1800   65     260/ 12     1011.9S
ATWATER BUOY     1800   62 55  260/ 19/ 25 1011.9F
MILWAUKEE LAKESH 1810   63     280/ 16/ 22   N/A
S MID LAKE BUOY  1750   63 71  250/ 21/ 29 1012.2F   5/ 5
KENOSHA   LAKESH 1800   64     270/ 21/ 27 1012.9F
$$

TC  - TEMPERATURE IN CELSIUS
VSB - VISIBILITY IN STATUTE MILES
WCI - WIND CHILL INDEX
HX  - HEAT INDEX





USA.gov is the U.S. government's official web portal to all federal, state and local government web resources and services.